FW3577 Weather Reports


time (UTC)temp
C
wind
direction
speed
KPH
gust
KPH
rain 1hr
cm
rain 24hr
cm
rain mn
cm
humidity
%
barometer
mb
20260502123459 2 160 0.0 0.0 0.00 0.00 0.00 84 1017.4
20260502123003 2 208 0.0 0.0 0.00 0.00 0.00 84 1017.4
20260502122459 1 185 0.0 0.0 0.00 0.00 0.00 85 1017.3
20260502122000 1 158 0.0 0.0 0.00 0.00 0.00 86 1017.3
20260502121459 1 179 0.0 0.0 0.00 0.00 0.00 86 1017.2
20260502120500 0 171 0.0 0.0 0.00 0.00 0.00 87 1017.1
20260502114959 0 171 0.0 0.0 0.00 0.00 0.00 87 1017.2
20260502114000 0 178 0.0 0.0 0.00 0.00 0.00 87 1017.4
20260502113000 0 156 0.0 0.0 0.00 0.00 0.00 87 1017.4
20260502112459 0 179 0.0 0.0 0.00 0.00 0.00 87 1017.4
20260502111459 0 167 0.0 0.0 0.00 0.00 0.00 87 1017.5
20260502110959 0 171 0.0 0.0 0.00 0.00 0.00 87 1017.5
20260502110459 0 177 0.0 0.0 0.00 0.00 0.00 86 1017.7
20260502110006 0 168 0.0 0.0 0.00 0.00 0.00 86 1017.7
20260502105459 0 203 0.0 0.0 0.00 0.00 0.00 86 1017.7
20260502104459 0 169 0.0 0.0 0.00 0.00 0.00 86 1017.7
20260502104000 0 174 0.0 0.0 0.00 0.00 0.00 86 1017.9
20260502103459 0 206 0.0 0.0 0.00 0.00 0.00 86 1017.9
20260502103000 0 162 0.0 0.0 0.00 0.00 0.00 86 1018.1
20260502101959 0 181 0.0 0.0 0.00 0.00 0.00 86 1018.1
20260502101459 0 172 0.0 0.0 0.00 0.00 0.00 86 1018.2
20260502101001 0 179 0.0 0.0 0.00 0.00 0.00 85 1018.1
20260502100459 0 174 0.0 0.0 0.00 0.00 0.00 85 1018.0
20260502091459 1 205 0.0 0.0 0.00 0.00 0.00 81 1018.4
20260502091000 1 182 0.0 0.0 0.00 0.00 0.00 81 1018.4
20260502090459 1 193 0.0 0.0 0.00 0.00 0.00 81 1018.5
20260502071459 2 219 0.0 0.0 0.00 0.00 0.00 77 1019.3
20260502070959 2 224 0.0 0.0 0.00 0.00 0.00 76 1019.4
20260502070000 2 225 0.0 0.0 0.00 0.00 0.00 76 1019.5
20260502065459 2 222 0.0 0.0 0.00 0.00 0.00 76 1019.5
20260502065000 2 217 0.0 0.0 0.00 0.00 0.00 76 1019.5
20260502064459 2 212 0.0 0.0 0.00 0.00 0.00 76 1019.5
20260502063459 2 216 0.0 0.0 0.00 0.00 0.00 76 1019.6
20260502062959 2 215 0.0 0.0 0.00 0.00 0.00 75 1019.6
20260502062458 2 216 0.0 0.0 0.00 0.00 0.00 74 1019.5
20260502061959 2 227 0.0 0.0 0.00 0.00 0.00 73 1019.6
20260502060959 2 211 0.0 0.0 0.00 0.00 0.00 72 1019.7
20260502060458 2 240 0.0 0.0 0.00 0.00 0.00 72 1019.7
20260502060001 2 220 0.0 0.0 0.00 0.00 0.00 71 1019.7
20260502055459 3 221 0.0 0.0 0.00 0.00 0.00 70 1019.7
20260502055000 3 214 0.0 0.0 0.00 0.00 0.00 69 1019.7
20260502054500 3 227 0.0 0.0 0.00 0.00 0.00 68 1019.7
20260502054001 3 224 0.0 0.0 0.00 0.00 0.00 66 1019.7
20260502053500 3 218 0.0 0.0 0.00 0.00 0.00 65 1019.7
20260502053001 4 178 0.0 0.0 0.00 0.00 0.00 64 1019.6
20260502052501 4 225 0.0 0.0 0.00 0.00 0.00 63 1019.8
20260502052001 5 221 0.0 0.0 0.00 0.00 0.00 63 1019.7
20260502051500 5 229 0.0 0.0 0.00 0.00 0.00 62 1019.6
20260502051001 5 207 0.0 0.0 0.00 0.00 0.00 62 1019.6
20260502050500 5 217 0.0 0.0 0.00 0.00 0.00 63 1019.5
20260502050005 5 198 0.0 0.0 0.00 0.00 0.00 64 1019.7
20260502044500 5 193 0.0 0.0 0.00 0.00 0.00 63 1019.6
20260502044002 5 180 0.0 0.0 0.00 0.00 0.00 63 1019.8
20260502043500 5 170 0.0 0.0 0.00 0.00 0.00 62 1019.8
20260502043002 5 166 0.0 0.0 0.00 0.00 0.00 63 1019.7
20260502042500 5 166 0.0 0.0 0.00 0.00 0.00 63 1019.9
20260502042001 5 175 0.0 0.0 0.00 0.00 0.00 63 1019.9
20260502041500 5 169 0.0 0.0 0.00 0.00 0.00 63 1020.0
20260502041001 5 175 0.0 0.0 0.00 0.00 0.00 62 1020.0
20260502040001 5 202 0.0 0.0 0.00 0.00 0.00 60 1020.0
20260502035002 6 208 0.0 0.0 0.00 0.00 0.00 60 1019.9
20260502034501 6 184 0.0 0.0 0.00 0.00 0.00 60 1020.0
20260502033500 6 160 0.0 0.0 0.00 0.00 0.00 60 1020.0
20260502033001 6 179 0.0 0.0 0.00 0.00 0.00 61 1020.0
20260502032500 6 202 0.0 0.0 0.00 0.00 0.00 61 1019.9
20260502031500 6 198 0.0 0.0 0.00 0.00 0.00 61 1019.9
20260502031000 6 177 0.0 0.0 0.00 0.00 0.00 61 1019.8
20260502030500 6 174 0.0 0.0 0.00 0.00 0.00 60 1019.8
20260502030001 6 179 0.0 0.0 0.00 0.00 0.00 59 1019.8
20260502025000 6 161 0.0 0.0 0.00 0.00 0.00 58 1019.5
20260502024500 6 134 0.0 0.0 0.00 0.00 0.00 58 1019.5
20260502024000 6 134 0.0 0.0 0.00 0.00 0.00 58 1019.4
20260502023500 6 140 0.0 0.0 0.00 0.00 0.00 58 1019.4
20260502023003 6 165 0.0 0.0 0.00 0.00 0.00 59 1019.3
20260502022501 6 165 0.0 0.0 0.00 0.00 0.00 59 1019.3
20260502022001 6 174 0.0 0.0 0.00 0.00 0.00 61 1019.3
20260502021502 6 129 0.0 0.0 0.00 0.00 0.00 61 1019.2
20260502021001 6 129 0.0 0.0 0.00 0.00 0.00 61 1019.2
20260502020501 6 129 0.0 0.0 0.00 0.00 0.00 61 1019.2
20260502020001 6 123 0.0 0.0 0.00 0.00 0.00 59 1019.1
20260502015500 7 120 0.0 0.0 0.00 0.00 0.00 58 1019.0
20260502015002 9 122 0.0 0.0 0.00 0.00 0.00 49 1018.9
20260502014501 9 122 0.0 0.0 0.00 0.00 0.00 49 1018.9
20260502014002 9 122 0.0 0.0 0.00 0.00 0.00 49 1018.9
20260502012959 10 115 0.0 0.0 0.00 0.00 0.00 47 1018.9
20260502012459 11 115 0.0 0.0 0.00 0.00 0.00 47 1019.0
20260502012001 11 104 0.0 0.0 0.00 0.00 0.00 48 1018.9
20260502011501 11 94 0.0 0.0 0.00 0.00 0.00 47 1018.9
20260502011000 12 74 0.0 0.0 0.00 0.00 0.00 45 1018.9
20260502005501 12 75 0.0 0.0 0.00 0.00 0.00 43 1018.8
20260502005000 12 76 0.0 0.0 0.00 0.00 0.00 43 1018.8
20260502004001 13 52 0.0 0.0 0.00 0.00 0.00 43 1018.7
20260502003500 13 28 0.0 0.0 0.00 0.00 0.00 40 1018.7
20260502002500 13 46 0.0 0.0 0.00 0.00 0.00 41 1018.9
20260502002001 13 79 0.0 0.0 0.00 0.00 0.00 42 1018.8
20260502001500 13 99 0.0 0.0 0.00 0.00 0.00 40 1019.0
20260502001001 13 82 0.0 0.0 0.00 0.00 0.00 41 1018.9
20260502000459 13 356 0.0 0.0 0.00 0.00 0.00 41 1018.9
20260502000001 13 6 0.0 0.0 0.00 0.00 0.00 41 1018.9
20260501235500 13 25 0.0 0.0 0.00 0.00 0.00 42 1019.0
20260501235000 13 43 0.0 0.0 0.00 0.00 0.00 41 1019.0
20260501234500 13 327 0.0 0.0 0.00 0.00 0.00 44 1019.1
20260501234000 13 28 0.0 0.0 0.00 0.00 0.00 41 1019.0
20260501233459 13 68 0.0 0.0 0.00 0.00 0.00 41 1019.0
20260501233000 13 71 0.0 0.0 0.00 0.00 0.00 42 1019.2
20260501232459 13 41 0.0 0.0 0.00 0.00 0.00 42 1019.2
20260501232000 13 45 0.0 0.0 0.00 0.00 0.00 42 1019.1
20260501231500 13 319 0.0 0.0 0.00 0.00 0.00 41 1019.0
20260501231000 13 300 0.0 0.0 0.00 0.00 0.00 44 1019.0
20260501230500 13 313 0.0 0.0 0.00 0.00 0.00 42 1019.2
20260501230006 13 11 0.0 0.0 0.00 0.00 0.00 42 1019.1
20260501225500 13 20 0.0 0.0 0.00 0.00 0.00 43 1019.2
20260501225001 13 285 0.0 0.0 0.00 0.00 0.00 41 1019.2
20260501224500 13 304 0.0 0.0 0.00 0.00 0.00 40 1019.2
20260501224000 13 340 0.0 0.0 0.00 0.00 0.00 41 1019.3
20260501223500 13 335 0.0 0.0 0.00 0.00 0.00 42 1019.3
20260501223001 13 19 0.0 0.0 0.00 0.00 0.00 41 1019.3
20260501222500 13 342 0.0 0.0 0.00 0.00 0.00 41 1019.3
20260501222001 13 11 0.0 0.0 0.00 0.00 0.00 42 1019.4
20260501221500 13 338 0.0 0.0 0.00 0.00 0.00 42 1019.4
20260501221001 13 17 0.0 0.0 0.00 0.00 0.00 42 1019.5
20260501220500 13 42 0.0 0.0 0.00 0.00 0.00 42 1019.5
20260501215500 13 319 0.0 0.0 0.00 0.00 0.00 42 1019.5
20260501215001 13 23 0.0 0.0 0.00 0.00 0.00 43 1019.5
20260501214500 13 6 0.0 0.0 0.00 0.00 0.00 43 1019.6
20260501213500 13 358 0.0 0.0 0.00 0.00 0.00 46 1019.7
20260501213001 13 316 0.0 0.0 0.00 0.00 0.00 43 1019.7
20260501212500 13 300 0.0 0.0 0.00 0.00 0.00 42 1019.7
20260501212001 13 359 0.0 0.0 0.00 0.00 0.00 42 1019.9
20260501211500 13 34 0.0 0.0 0.00 0.00 0.00 42 1019.8
20260501211001 13 28 0.0 0.0 0.00 0.00 0.00 45 1019.9
20260501210501 12 340 0.0 0.0 0.00 0.00 0.00 42 1019.8
20260501210004 12 48 0.0 0.0 0.00 0.00 0.00 44 1020.0
20260501205500 12 3 0.0 0.0 0.00 0.03 0.00 43 1020.1
20260501205001 12 26 0.0 0.0 0.00 0.03 0.00 43 1020.2
20260501204500 13 74 0.0 0.0 0.00 0.03 0.00 44 1020.2
20260501204001 12 15 0.0 1.6 0.00 0.03 0.00 46 1020.3
20260501203501 12 342 0.0 1.6 0.00 0.03 0.00 44 1020.3
20260501203001 12 11 0.0 0.0 0.00 0.03 0.00 43 1020.4
20260501202002 12 337 0.0 0.0 0.00 0.03 0.00 47 1020.6
20260501201500 12 346 0.0 0.0 0.00 0.03 0.00 44 1020.4
20260501201001 12 37 0.0 0.0 0.00 0.03 0.00 45 1020.5
20260501200501 12 333 0.0 0.0 0.00 0.03 0.00 47 1020.4
20260501200004 12 36 0.0 0.0 0.00 0.03 0.00 45 1020.5
20260501195501 12 360 0.0 0.0 0.00 0.03 0.00 44 1020.6
20260501195001 12 23 0.0 0.0 0.00 0.03 0.00 45 1020.6
20260501194500 12 22 0.0 0.0 0.00 0.03 0.00 46 1020.6
20260501194001 11 58 0.0 0.0 0.00 0.03 0.00 44 1020.6
20260501193500 11 25 0.0 0.0 0.00 0.03 0.00 49 1020.5
20260501193002 11 341 0.0 0.0 0.00 0.03 0.00 46 1020.6
20260501192500 11 347 0.0 0.0 0.00 0.03 0.00 47 1020.6
20260501192001 12 72 0.0 0.0 0.00 0.03 0.00 46 1020.6
20260501191002 11 30 0.0 0.0 0.00 0.03 0.00 47 1020.7
20260501190501 11 358 0.0 0.0 0.00 0.03 0.00 48 1020.7
20260501185459 11 359 0.0 0.0 0.00 0.03 0.00 49 1020.6
20260501185001 11 32 0.0 0.0 0.00 0.03 0.00 49 1020.7
20260501184000 11 353 0.0 0.0 0.00 0.03 0.00 51 1020.6
20260501183459 11 37 0.0 0.0 0.00 0.03 0.00 51 1020.6
20260501183000 11 63 0.0 0.0 0.00 0.03 0.00 48 1020.7
20260501182000 11 345 0.0 0.0 0.00 0.03 0.00 46 1020.8
20260501181500 11 342 0.0 0.0 0.00 0.03 0.00 51 1020.8
20260501181001 11 28 0.0 0.0 0.00 0.03 0.00 51 1020.8
20260501180459 10 342 0.0 0.0 0.00 0.03 0.00 50 1020.8
20260501180001 10 342 0.0 0.0 0.00 0.03 0.00 50 1020.8
20260501174500 10 352 0.0 0.0 0.00 0.03 0.00 51 1020.9
20260501174000 10 333 0.0 0.0 0.00 0.03 0.00 56 1020.9
20260501173459 10 340 0.0 0.0 0.00 0.03 0.00 53 1021.0
20260501173000 10 345 0.0 0.0 0.00 0.03 0.00 53 1021.1
20260501171000 10 327 0.0 0.0 0.00 0.03 0.00 54 1021.2
20260501170459 9 15 0.0 3.2 0.00 0.03 0.00 55 1021.2
20260501170001 8 25 0.0 3.2 0.00 0.03 0.00 57 1021.3
20260501165459 8 40 0.0 0.0 0.00 0.03 0.00 58 1021.3
20260501165000 8 15 0.0 0.0 0.00 0.03 0.00 57 1021.3
20260501164459 8 48 0.0 0.0 0.00 0.03 0.00 59 1021.4
20260501163459 8 327 0.0 0.0 0.00 0.03 0.00 59 1021.4
20260501162001 7 338 0.0 1.6 0.00 0.03 0.00 60 1021.4
20260501161000 7 344 0.0 0.0 0.00 0.03 0.00 61 1021.4
20260501160459 7 18 0.0 0.0 0.00 0.03 0.00 63 1021.4
20260501160001 7 18 0.0 0.0 0.00 0.03 0.00 64 1021.5
20260501155459 7 341 0.0 0.0 0.00 0.03 0.00 63 1021.5
20260501155000 7 9 0.0 0.0 0.00 0.03 0.00 63 1021.6
20260501154459 6 16 0.0 0.0 0.00 0.03 0.00 63 1021.5
20260501154000 6 68 0.0 0.0 0.00 0.03 0.00 63 1021.5
20260501153459 6 31 0.0 0.0 0.00 0.03 0.00 63 1021.6
20260501153001 6 13 0.0 0.0 0.00 0.03 0.00 62 1021.6
20260501152459 6 49 0.0 0.0 0.00 0.03 0.00 64 1021.6
20260501152000 6 324 0.0 0.0 0.00 0.03 0.00 64 1021.6
20260501151459 6 57 0.0 0.0 0.00 0.03 0.00 66 1021.5
20260501151000 6 49 0.0 0.0 0.00 0.03 0.00 67 1021.5
20260501150001 5 63 0.0 0.0 0.00 0.03 0.00 66 1021.5
20260501145459 5 49 0.0 0.0 0.00 0.03 0.00 68 1021.5
20260501144459 5 40 0.0 0.0 0.00 0.03 0.00 70 1021.5
20260501144000 5 44 0.0 0.0 0.00 0.03 0.00 73 1021.5
20260501143459 4 42 0.0 0.0 0.00 0.03 0.00 73 1021.6
20260501143001 4 62 0.0 0.0 0.00 0.03 0.00 73 1021.6